Stations météo

Publicité
Tarbes/Ossun, France (7621): Température de l'air & dewpoint: 07.08.2020 12:00:00 - 13.08.2020 12:00:00 (CEST)Tarbes/Ossun, France (7621): Température de l'air 5cm: 07.08.2020 12:00:00 - 13.08.2020 12:00:00 (CEST)Tarbes/Ossun, France (7621): Température de l'air -20cm & Température de l'air -100cm: 07.08.2020 12:00:00 - 13.08.2020 12:00:00 (CEST)Tarbes/Ossun, France (7621): Vitesse du vent & gusts: 07.08.2020 12:00:00 - 13.08.2020 12:00:00 (CEST)Tarbes/Ossun, France (7621): Direction du vent: 07.08.2020 12:00:00 - 13.08.2020 12:00:00 (CEST)Tarbes/Ossun, France (7621): reduced air pressure: 07.08.2020 12:00:00 - 13.08.2020 12:00:00 (CEST)Tarbes/Ossun, France (7621): visibility: 07.08.2020 12:00:00 - 13.08.2020 12:00:00 (CEST)Tarbes/Ossun, France (7621): Ensoleillement: 07.08.2020 12:00:00 - 13.08.2020 12:00:00 (CEST)Tarbes/Ossun, France (7621): Quantités de précipitations: 07.08.2020 12:00:00 - 13.08.2020 12:00:00 (CEST)
Date & Time tt [°C] td [°C] tt 5cm [°C] tt -20cm [°C] tt -100cm [°C] ff [km/h] ff [knt] fx [km/h] fx [knt] dd ppp [hPa] vv [km] sd [min] rr [mm]
13.08.2020 12:00:00 - - - - - - - - - - - - - -
13.08.2020 11:00:00 - - - - - - - - - - - - - -
13.08.2020 10:00:00 - - - - - - - - - - - - - -
13.08.2020 09:00:00 - - - - - - - - - - - - - -
13.08.2020 08:00:00 - - - - - - - - - - - - - -
13.08.2020 07:00:00 - - - - - - - - - - - - - -
13.08.2020 06:00:00 - - - - - - - - - - - - - -
13.08.2020 05:00:00 - - - - - - - - - - - - - -
13.08.2020 04:00:00 - - - - - - - - - - - - - -
13.08.2020 03:00:00 - - - - - - - - - - - - - -
13.08.2020 02:00:00 - - - - - - - - - - - - - -
13.08.2020 01:00:00 - - - - - - - - - - - - - -
13.08.2020 00:00:00 - - - - - - - - - - - - - -
12.08.2020 23:00:00 - - - - - - - - - - - - - -
12.08.2020 22:00:00 - - - - - - - - - - - - - -
12.08.2020 21:00:00 - - - - - - - - - - - - - -
12.08.2020 20:00:00 - - - - - - - - - - - - - -
12.08.2020 19:00:00 - - - - - - - - - - - - - -
12.08.2020 18:00:00 - - - - - - - - - - - - - -
12.08.2020 17:00:00 - - - - - - - - - - - - - -
12.08.2020 16:00:00 - - - - - - - - - - - - - -
12.08.2020 15:00:00 - - - - - - - - - - - - - -
12.08.2020 14:00:00 - - - - - - - - - - - - - -
12.08.2020 13:00:00 - - - - - - - - - - - - - -
12.08.2020 12:00:00 - - - - - - - - - - - - - -
12.08.2020 11:00:00 - - - - - - - - - - - - - -
12.08.2020 10:00:00 - - - - - - - - - - - - - -
12.08.2020 09:00:00 - - - - - - - - - - - - - -
12.08.2020 08:00:00 - - - - - - - - - - - - - -
12.08.2020 07:00:00 - - - - - - - - - - - - - -
12.08.2020 06:00:00 - - - - - - - - - - - - - -
12.08.2020 05:00:00 - - - - - - - - - - - - - -
12.08.2020 04:00:00 - - - - - - - - - - - - - -
12.08.2020 03:00:00 - - - - - - - - - - - - - -
12.08.2020 02:00:00 - - - - - - - - - - - - - -
12.08.2020 01:00:00 - - - - - - - - - - - - - -
12.08.2020 00:00:00 - - - - - - - - - - - - - -
11.08.2020 23:00:00 - - - - - - - - - - - - - -
11.08.2020 22:00:00 - - - - - - - - - - - - - -
11.08.2020 21:00:00 - - - - - - - - - - - - - -
11.08.2020 20:00:00 - - - - - - - - - - - - - -
11.08.2020 19:00:00 - - - - - - - - - - - - - -
11.08.2020 18:00:00 - - - - - - - - - - - - - -
11.08.2020 17:00:00 - - - - - - - - - - - - - -
11.08.2020 16:00:00 - - - - - - - - - - - - - -
11.08.2020 15:00:00 - - - - - - - - - - - - - -
11.08.2020 14:00:00 33,7 15,7 36,7 22,7 20,3 9 5 18 10 ENE 1010,6 51 45 0,0
11.08.2020 13:00:00 31,1 16,3 33,3 22,7 20,3 8 5 21 11 SE 1011,3 50 27 0,0
11.08.2020 12:00:00 27,4 18,7 25,0 22,7 20,2 10 5 18 10 SSE 1012,4 54 18 0,2
11.08.2020 11:00:00 21,9 19,1 20,7 22,7 20,2 5 3 18 10 SSE 1013,4 37 0 0,0
11.08.2020 10:00:00 20,7 19,7 19,5 22,7 20,2 7 4 11 6 S 1014,4 17 0 0,0
11.08.2020 09:00:00 19,5 19,0 18,7 22,9 20,2 6 3 14 7 N 1014,5 4,9 0 0,0
11.08.2020 08:00:00 18,8 18,1 18,0 23,0 20,2 7 4 9 5 ESE 1014,0 12 0 0,2
11.08.2020 07:00:00 18,6 17,9 17,9 23,1 20,2 6 3 10 5 SSW 1013,4 8 0 0,0
11.08.2020 06:00:00 18,7 18,0 17,7 23,2 20,2 6 3 10 5 SE 1013,5 10 0 0,0
11.08.2020 05:00:00 18,7 17,9 16,3 23,4 20,2 2 1 16 8 NNE 1013,3 0,4 0 0,0
11.08.2020 04:00:00 18,8 16,8 16,4 23,5 20,2 9 5 12 7 S 1013,5 35 0 0,0
11.08.2020 03:00:00 19,8 18,1 17,7 23,7 20,2 6 3 14 7 SW 1013,8 20 0 0,0
11.08.2020 02:00:00 21,1 19,0 20,3 23,7 20,2 8 4 13 7 SSE 1013,7 32 0 0,0
11.08.2020 01:00:00 21,2 19,3 19,3 23,8 20,2 10 5 14 7 S 1013,8 33 0 0,0
11.08.2020 00:00:00 21,2 18,2 19,9 23,9 20,2 8 4 23 13 S 1013,9 49 0 0,0
10.08.2020 23:00:00 23,5 19,6 19,5 24,0 20,2 13 7 27 15 W 1013,4 41 0 0,0
10.08.2020 22:00:00 21,4 16,8 19,2 24,1 20,2 13 7 21 11 S 1012,3 60 0 0,0
10.08.2020 21:00:00 22,2 17,6 20,7 24,2 20,2 14 8 18 10 S 1011,8 60 5 0,0
10.08.2020 20:00:00 23,0 18,3 22,6 24,3 20,2 10 5 18 10 S 1011,7 59 0 0,0
10.08.2020 19:00:00 23,0 18,1 20,5 24,3 20,2 12 7 47 26 SE 1012,1 58 3 0,0
10.08.2020 18:00:00 22,8 15,4 18,7 24,3 20,2 23 12 59 32 E 1011,9 41 0 0,4
10.08.2020 17:00:00 22,8 20,5 21,6 24,2 20,1 22 12 35 19 SSE 1013,4 3,7 0 2,0
10.08.2020 16:00:00 24,9 19,7 25,5 24,1 20,1 10 6 22 12 S 1013,1 18 10 0,0
10.08.2020 15:00:00 25,0 19,1 24,2 24,0 20,1 5 3 29 15 NNW 1013,1 30 0 0,0
10.08.2020 14:00:00 26,4 19,3 28,5 23,9 20,1 10 5 26 14 WNW 1012,5 37 22 0,0
10.08.2020 13:00:00 25,4 18,8 28,2 23,9 20,1 8 4 16 8 SE 1012,1 37 24 0,0
10.08.2020 12:00:00 24,8 18,3 28,3 23,9 20,1 2 1 11 6 N 1012,6 36 3 0,0
10.08.2020 11:00:00 23,2 18,5 23,8 24,0 20,1 3 2 10 5 E 1013,1 29 1 0,0
10.08.2020 10:00:00 21,6 19,3 - - - 5 3 11 6 N 1013,4 17 - 0,0
10.08.2020 09:00:00 21,0 19,5 21,2 24,2 20,1 6 3 10 5 N 1013,1 9 0 0,0
10.08.2020 08:00:00 20,5 19,2 19,9 24,3 20,1 2 1 10 5 SW 1013,2 15 0 0,0
10.08.2020 07:00:00 20,1 18,9 19,3 24,4 20,1 5 3 19 10 W 1013,0 11 0 0,0
10.08.2020 06:00:00 19,8 19,0 18,1 24,6 20,1 9 5 21 11 WNW 1012,6 8 0 0,0
10.08.2020 05:00:00 20,7 19,5 20,0 24,6 20,1 13 7 35 19 W 1012,7 13 0 0,0
10.08.2020 04:00:00 21,1 19,6 20,5 24,8 20,1 8 5 16 9 W 1013,1 16 0 0,0
10.08.2020 03:00:00 21,6 19,7 20,6 24,8 20,1 8 4 32 17 E 1012,5 22 0 0,0
10.08.2020 02:00:00 22,1 20,2 21,2 24,9 20,1 8 4 36 20 ENE 1012,0 24 0 0,0
10.08.2020 01:00:00 22,0 20,5 21,5 25,0 20,0 19 10 35 19 WSW 1014,4 12 0 0,0
10.08.2020 00:00:00 24,2 21,3 23,2 25,1 20,0 9 5 38 21 SSE 1013,3 25 0 0,0
09.08.2020 23:00:00 25,0 21,1 24,3 25,1 20,0 19 10 35 19 W 1012,9 32 0 0,0
09.08.2020 22:00:00 25,4 19,8 22,1 25,0 20,0 13 7 16 9 SW 1012,1 60 0 0,0
09.08.2020 21:00:00 26,5 19,9 24,1 25,0 20,0 8 4 12 6 SSW 1011,0 20 0 0,0
09.08.2020 20:00:00 30,6 20,5 30,5 24,8 20,0 4 2 12 6 ENE 1010,7 59 8 0,0
09.08.2020 19:00:00 33,3 17,9 36,1 24,6 20,0 7 4 15 8 NE 1010,2 54 57 0,0
09.08.2020 18:00:00 32,5 15,9 38,5 24,5 20,0 5 3 25 14 ENE 1011,0 48 60 0,0
09.08.2020 17:00:00 31,7 15,2 27,9 24,4 20,0 12 6 24 13 SE 1011,8 51 42 0,0
09.08.2020 16:00:00 29,1 16,0 30,9 24,2 20,0 16 9 29 16 S 1012,9 56 7 0,0
09.08.2020 15:00:00 30,9 17,6 31,3 24,1 20,0 9 5 24 13 S 1013,4 56 0 0,0
09.08.2020 14:00:00 31,4 20,0 32,1 24,0 20,0 8 4 16 9 E 1013,4 58 17 0,0
09.08.2020 13:00:00 31,9 19,9 37,0 24,0 20,0 7 4 19 11 ESE 1013,4 34 52 0,0
09.08.2020 12:00:00 28,4 19,6 29,2 23,9 19,9 11 6 21 12 N 1014,8 20 43 0,0
09.08.2020 11:00:00 25,2 19,1 22,4 24,0 19,9 3 2 19 11 W 1015,4 58 3 0,0
09.08.2020 10:00:00 25,3 18,2 27,6 24,1 19,9 4 2 10 5 S 1016,2 48 48 0,0
09.08.2020 09:00:00 22,4 17,5 18,8 24,3 19,9 3 2 9 5 NNE 1016,7 44 51 0,0
09.08.2020 08:00:00 19,5 17,1 16,6 24,4 19,9 2 1 11 6 SE 1017,2 46 0 0,0
09.08.2020 07:00:00 19,7 16,7 16,5 24,6 19,9 2 1 13 7 ENE 1017,1 52 0 0,0
09.08.2020 06:00:00 20,0 16,8 - - - 4 2 21 11 NNW 1016,5 50 - 0,0
09.08.2020 05:00:00 19,8 16,8 18,1 24,9 19,9 7 4 18 10 W 1017,1 54 0 0,0
09.08.2020 04:00:00 20,4 16,4 18,5 25,0 19,9 3 2 13 7 NNE 1017,3 60 0 0,0
09.08.2020 03:00:00 20,9 16,1 19,1 25,2 19,9 5 3 13 7 E 1018,2 60 0 0,0
09.08.2020 02:00:00 21,0 16,0 20,2 25,3 19,9 11 6 49 27 S 1019,8 60 0 0,0
09.08.2020 01:00:00 21,9 15,0 21,3 25,4 19,9 35 19 61 33 W 1020,8 60 0 0,0
09.08.2020 00:00:00 24,1 17,8 21,6 25,4 19,9 13 7 34 18 W 1018,9 57 0 0,0
08.08.2020 23:00:00 24,7 19,8 21,8 25,4 19,9 6 3 11 6 SW 1017,5 52 0 0,0
08.08.2020 22:00:00 25,5 19,9 23,2 25,3 19,9 8 5 10 6 S 1017,1 59 0 0,0
08.08.2020 21:00:00 29,0 19,3 26,2 25,2 19,9 5 3 11 6 W 1015,9 12 44 0,0
08.08.2020 20:00:00 32,2 18,4 34,4 25,0 19,8 8 4 14 8 N 1015,2 60 60 0,0
08.08.2020 19:00:00 33,1 17,3 38,4 24,8 19,9 8 4 21 11 NNE 1015,2 46 60 0,0
08.08.2020 18:00:00 33,5 16,8 41,0 24,5 19,9 8 4 19 10 NW 1015,8 44 60 0,0
08.08.2020 17:00:00 34,0 17,7 42,0 24,2 19,8 5 3 22 12 N 1015,9 46 60 0,0
08.08.2020 16:00:00 33,3 17,1 41,5 23,9 19,8 8 4 22 12 N 1016,6 33 60 0,0
08.08.2020 15:00:00 32,6 16,0 39,7 23,7 19,8 7 4 30 16 WNW 1017,3 58 60 0,0
08.08.2020 14:00:00 30,7 15,2 38,5 23,6 19,8 10 5 20 11 NNW 1018,1 33 60 0,0
08.08.2020 13:00:00 29,2 15,7 34,0 23,5 19,8 8 5 29 16 NE 1018,7 56 54 0,0
08.08.2020 12:00:00 27,9 14,9 36,3 23,5 19,8 5 3 15 8 NW 1019,2 45 60 0,0
08.08.2020 11:00:00 27,2 15,6 33,8 23,5 19,8 4 2 11 6 SSE 1019,6 41 60 0,0
08.08.2020 10:00:00 24,7 16,4 28,8 23,7 19,8 4 2 11 6 S 1020,3 41 60 0,0
08.08.2020 09:00:00 21,9 16,8 22,4 23,9 19,8 6 3 13 7 S 1020,8 39 60 0,0
08.08.2020 08:00:00 19,5 16,2 17,0 24,0 19,8 10 5 18 10 SSE 1021,1 40 15 0,0
08.08.2020 07:00:00 18,3 15,7 16,2 24,2 19,8 16 8 21 11 S 1021,1 46 0 0,0
08.08.2020 06:00:00 18,5 15,2 16,3 24,3 19,8 9 5 22 12 SSW 1021,0 56 0 0,0
08.08.2020 05:00:00 17,9 15,7 16,1 24,5 19,8 11 6 19 10 SSW 1021,0 44 0 0,0
08.08.2020 04:00:00 19,0 16,2 - - - 8 4 18 10 S 1020,4 45 - 0,0
08.08.2020 03:00:00 20,3 16,7 18,8 24,7 19,8 7 4 33 18 W 1019,9 46 0 0,0
08.08.2020 02:00:00 22,4 17,1 21,9 24,7 19,7 24 13 59 32 NNW 1018,9 50 0 0,0
08.08.2020 01:00:00 26,6 15,3 23,9 24,9 19,8 21 11 37 20 SW 1018,6 60 0 0,0
08.08.2020 00:00:00 24,8 20,5 23,0 24,9 19,8 11 6 32 18 S 1019,1 35 0 0,0
07.08.2020 23:00:00 23,6 19,9 23,0 24,9 19,8 12 7 33 18 SSW 1019,5 29 0 0,0
07.08.2020 22:00:00 26,7 21,2 24,9 24,8 19,8 7 4 32 17 SSW 1017,4 42 0 0,0
07.08.2020 21:00:00 25,7 20,5 25,3 24,7 19,8 19 11 49 26 W 1017,0 36 39 0,0
07.08.2020 20:00:00 30,8 22,1 32,4 24,4 19,8 32 17 45 25 W 1014,3 47 60 0,0
07.08.2020 19:00:00 37,5 15,3 42,6 24,2 19,8 7 4 23 13 N 1012,8 60 60 0,0
07.08.2020 18:00:00 38,1 15,8 44,0 23,9 19,8 9 5 23 12 E 1012,5 52 60 0,0
07.08.2020 17:00:00 38,1 13,4 43,7 23,6 19,8 8 4 23 13 N 1012,7 38 57 0,0
07.08.2020 16:00:00 38,3 14,8 45,3 23,3 19,8 7 4 23 12 E 1013,0 57 60 0,0
07.08.2020 15:00:00 37,2 14,5 45,1 23,0 19,8 15 8 24 13 N 1013,5 43 60 0,0
07.08.2020 14:00:00 37,5 16,5 45,9 22,8 19,8 7 4 16 9 N 1013,6 41 60 0,0
07.08.2020 13:00:00 35,9 15,1 44,1 22,7 19,7 9 5 16 9 NNE 1014,0 39 60 0,0
07.08.2020 12:00:00 34,5 15,9 41,0 22,7 19,8 6 3 14 8 NW 1014,5 48 58 0,0

tt = Température de l'air
td = dewpoint
tt 5cm = Température de l'air 5cm
tt -20cm = Température de l'air -20cm
tt -100cm = Température de l'air -100cm
ff = Vitesse du vent
fx = gusts
dd = Direction du vent
ppp = reduced air pressure
vv = visibility
sd = Ensoleillement
rr = Quantités de précipitations

stations d'obs. à proximité